This is the latest recevied weather packets stored in our database for station/object W6ORV. If no packets are shown the sender has not sent any weather packets the latest 10 day(s).
| Time | Temp. | Humidity | Pressure | Rain* | Wind** | Luminosity | Snow |
|---|---|---|---|---|---|---|---|
| 1777582777 | 27.78° C | 32% | 4297.1 hPa | 0 mm | - | 745 W/m² | - |
| 1777582472 | 27.78° C | 32% | 4297.4 hPa | 0 mm | - | 724 W/m² | - |
| 1777582173 | 27.22° C | 34% | 4297.1 hPa | 0 mm | - | 705 W/m² | - |
| 1777581872 | 27.78° C | 32% | 4297.2 hPa | 0 mm | - | 696 W/m² | - |
| 1777581566 | 28.33° C | 32% | 4297.2 hPa | 0 mm | - | 702 W/m² | - |
| 1777581262 | 27.78° C | 33% | 4297.4 hPa | 0 mm | - | 732 W/m² | - |
| 1777580956 | 27.22° C | 34% | 4297.5 hPa | 0 mm | - | 758 W/m² | - |
| 1777580651 | 27.78° C | 32% | 4297.3 hPa | 0 mm | - | 770 W/m² | - |
| 1777580347 | 26.67° C | 33% | 4297.6 hPa | 0 mm | - | 778 W/m² | - |
| 1777580043 | 26.67° C | 35% | 4297.6 hPa | 0 mm | - | 776 W/m² | - |
| 1777579740 | 26.67° C | 33% | 4297.6 hPa | 0 mm | - | 772 W/m² | - |
| 1777579437 | 26.11° C | 35% | 4297.6 hPa | 0 mm | - | 725 W/m² | - |
| 1777579133 | 27.22° C | 34% | 4297.7 hPa | 0 mm | - | 700 W/m² | - |
| 1777578832 | 27.22° C | 34% | 4298.2 hPa | 0 mm | - | 725 W/m² | - |
| 1777578529 | 25.56° C | 35% | 4298 hPa | 0 mm | - | 744 W/m² | - |
| 1777578223 | 25° C | 35% | 4298.2 hPa | 0 mm | - | 787 W/m² | - |
| 1777577919 | 25.56° C | 37% | 4297.9 hPa | 0 mm | - | 790 W/m² | - |
| 1777577615 | 25.56° C | 38% | 4298.3 hPa | 0 mm | - | 796 W/m² | - |
| 1777577313 | 25° C | 38% | 4298.2 hPa | 0 mm | - | 799 W/m² | - |
| 1777577008 | 25° C | 38% | 4298.4 hPa | 0 mm | - | 773 W/m² | - |
| 1777576706 | 24.44° C | 41% | 4298.3 hPa | 0 mm | - | 774 W/m² | - |
| 1777576404 | 23.33° C | 40% | 4298.6 hPa | 0 mm | - | 803 W/m² | - |
| 1777576101 | 23.33° C | 42% | 4298.5 hPa | 0 mm | - | 820 W/m² | - |
| 1777575797 | 23.89° C | 42% | 4298.6 hPa | 0 mm | - | 801 W/m² | - |
| 1777575494 | 24.44° C | 41% | 4298.6 hPa | 0 mm | - | 808 W/m² | - |
* Rain latest hour (hover to see other rain measurements)
** Current wind speed in m/s (hover to see current wind gust speed)